sat.trackr.live / text

‹ back to catalog

STARLINK-35442

NORAD 66319 · 2025-253A

PAYLOAD ACTIVE UNKNOWN

§ Identity

Operator
Country
US
Launch date
2025-11-06
Launch site
AFETR
Launch vehicle
Mass (kg)
RCS (m²)

Purposes: comms

External: N2YO · Heavens-Above · Gunter

§ Orbital elements

Epoch: 2026-05-25T00:21:16.267104Z

Period
94.27 min
Inclination
42.9977°
Eccentricity
0.0001434
Mean motion
15.27589932 rev/d
Perigee alt
482.0 km
Apogee alt
484.0 km
Semi-major
6,861.2 km
B*
7.5564e-4
RAAN
141.7944°
Arg perigee
277.6239°
Mean anomaly
82.4450°
Rev number
3,191

§ Raw data

STARLINK-354421 66319U 25253A   26145.01477161  .00020596  00000+0  75564-3 0  99982 66319  42.9977 141.7944 0001434 277.6239  82.4450 15.27589932 31911

JSON: /api/v1/satellites/66319 · /tle

For live sub-satellite position, see the globe view (requires WebGL).

§ Visibility from observer

Set your observer location to see the next 7 days of passes ≥ 10°. The values pass through the URL so the page stays shareable.

No JS? Fill the form by hand. The geolocation button needs JavaScript.